Theta_e
291 291 291 290 291 291 291 292 292 292 292 292 293 293 294 295 296 296 297 298 299 300 303 304 305 305 305 307 305 305 306 308 310 309 309 308 309 310 311 311 312 312 311 312 312 310 311 309 310 308 306 305 305 304 302 299 298 297 296 293 292 290 288 287 288 289 288 287 285 285 287 286 288 289 287 289 289 289 289 291 290 290 287 289 291
290 289 290 290 290 290 290 291 291 290 290 291 291 292 293 294 294 295 296 297 297 297 299 302 301 300 301 301 302 303 306 307 306 307 307 308 307 308 309 310 311 311 309 310 310 310 308 307 307 307 305 305 305 304 301 298 296 295 294 291 290 291 290 288 290 290 286 285 285 285 285 286 286 287 287 288 288 288 289 290 290 290 289 288 287
288 288 289 289 289 289 289 290 290 290 290 290 290 291 291 292 293 293 294 295 295 296 297 297 299 300 301 300 300 301 300 302 303 303 306 307 306 307 308 308 309 308 308 307 308 307 307 306 306 305 304 304 303 301 299 298 296 295 294 295 290 288 288 288 289 291 287 283 282 283 282 284 286 286 287 288 288 287 288 289 290 289 290 288 288
287 287 287 287 288 288 288 288 289 289 289 289 289 290 291 291 291 292 293 293 294 295 296 297 298 298 298 299 299 300 298 298 300 301 303 305 305 304 304 305 307 306 305 305 306 306 305 304 302 302 303 303 303 302 300 299 297 296 294 294 294 290 287 288 290 290 286 287 284 285 280 281 280 283 286 285 286 288 288 289 289 290 289 288 287
286 286 287 287 287 287 287 287 288 288 288 288 289 289 290 289 290 291 291 292 293 293 294 296 297 298 298 299 299 298 298 298 298 299 299 298 300 301 301 301 303 304 303 303 303 302 302 302 301 301 302 301 300 300 300 300 299 297 296 294 293 295 291 288 289 290 288 290 288 281 280 281 281 279 281 283 282 285 287 287 288 289 288 288 288
286 286 286 286 286 286 286 286 287 287 287 288 288 289 289 289 290 290 290 291 291 292 293 294 294 295 295 294 294 294 294 294 293 293 295 297 297 296 298 297 298 299 298 299 298 298 299 299 299 299 299 298 299 299 299 299 298 296 295 295 294 294 296 291 289 290 290 289 287 284 284 282 282 280 283 282 281 283 285 286 287 288 287 287 287
286 286 285 285 285 285 285 285 286 286 286 287 288 288 288 289 289 289 289 290 290 290 291 292 292 292 292 292 292 292 291 292 293 293 293 294 295 295 297 298 298 299 299 297 297 296 295 295 296 297 297 298 298 299 299 299 299 298 297 295 295 295 293 292 291 291 290 289 288 288 285 284 281 283 282 281 282 283 282 284 286 285 285 286 287
285 285 285 285 285 285 284 285 285 285 286 286 287 287 287 287 288 288 289 289 289 290 290 290 290 290 290 291 291 290 290 290 291 292 293 293 293 292 293 293 294 295 296 297 297 297 296 297 294 294 295 296 297 298 298 299 299 298 297 296 295 294 293 292 292 291 290 290 291 289 288 285 283 284 281 284 281 281 282 282 282 284 284 285 287
285 284 284 284 284 284 284 284 285 285 286 286 286 286 287 287 287 287 287 288 288 288 289 289 289 289 289 289 289 289 290 290 290 291 291 291 291 292 292 292 292 293 293 293 294 294 294 295 295 294 293 293 292 295 296 297 297 296 296 295 294 294 293 293 292 291 290 291 289 289 288 288 286 285 284 283 283 281 281 280 282 283 283 284 285
285 285 284 284 284 284 284 283 284 284 285 286 286 286 286 286 286 286 286 286 287 286 287 287 288 288 288 288 287 288 289 289 289 289 289 290 289 290 290 290 291 291 291 292 292 292 292 293 294 294 293 292 291 291 290 292 294 295 295 295 295 294 294 293 292 292 292 292 291 291 289 288 286 285 284 285 284 283 285 282 280 282 282 285 287
283 283 284 284 283 283 283 283 283 284 284 285 285 285 285 285 285 285 285 286 286 285 285 285 286 286 286 286 286 286 287 287 287 287 288 288 288 288 289 289 289 289 290 290 291 291 291 291 292 292 293 292 291 290 290 290 291 291 293 293 294 294 294 293 292 292 292 291 291 290 290 289 289 286 285 285 286 285 283 284 280 282 284 284 283
283 282 282 282 283 283 282 283 283 283 283 284 284 285 285 284 285 284 285 285 285 285 285 284 285 285 285 285 285 286 286 286 285 285 286 286 286 286 287 288 288 289 289 289 289 290 290 290 290 291 292 292 293 292 292 290 291 289 289 289 291 292 292 292 293 292 291 291 290 291 290 291 290 288 287 287 286 286 286 286 284 280 282 282 283
282 281 281 282 282 282 282 282 282 282 282 283 283 284 284 284 283 284 283 284 285 285 284 284 284 283 283 284 284 285 285 285 285 284 285 285 285 285 285 285 286 287 287 287 288 288 288 288 289 289 290 291 291 291 292 291 290 290 289 289 288 288 289 291 291 291 292 291 291 291 291 290 290 290 290 288 287 287 286 285 284 280 284 281 281
281 281 281 281 281 281 281 281 282 282 281 282 282 283 283 283 283 283 283 283 284 284 284 284 283 283 283 283 284 284 283 284 284 284 285 285 285 284 284 284 284 285 285 286 287 287 288 288 288 288 289 289 289 290 290 290 290 290 290 289 289 289 288 288 289 290 290 291 291 290 289 290 290 290 289 289 288 287 286 285 286 283 280 283 280
281 280 280 280 281 280 281 281 281 281 281 282 282 282 282 282 282 282 282 282 283 283 283 283 284 283 284 284 284 284 283 283 283 284 284 284 284 284 284 284 284 284 285 285 286 286 286 287 287 287 288 288 288 288 289 289 289 289 289 289 288 288 287 286 286 286 287 287 288 288 288 288 289 289 289 289 289 289 289 287 286 285 285 282 282
281 280 280 280 280 280 281 281 281 281 281 281 281 281 282 281 281 281 281 281 281 282 282 282 282 283 283 283 283 283 283 282 283 283 284 284 284 284 283 284 284 284 284 285 285 285 285 285 286 286 287 287 287 287 287 287 287 287 287 287 288 289 287 286 286 285 285 285 285 286 285 285 286 286 287 288 289 289 289 289 287 286 284 283 283
280 280 280 280 280 281 281 281 281 282 282 281 281 280 280 281 281 280 280 280 281 281 281 281 281 281 281 281 281 281 282 281 281 281 283 284 284 284 284 284 284 284 284 285 284 284 284 285 285 285 286 286 286 286 286 286 286 286 286 286 287 288 286 286 286 285 285 285 285 284 285 285 285 284 284 284 285 286 287 288 288 288 287 284 283
281 281 281 281 282 282 283 283 283 283 282 281 280 280 280 281 280 280 280 280 280 280 280 280 280 280 280 280 280 280 281 281 281 281 281 282 283 284 284 283 283 284 284 284 284 284 284 284 283 283 284 284 285 285 285 286 286 286 286 286 286 286 286 286 286 286 286 285 285 284 284 284 284 284 284 283 283 284 284 285 286 287 288 286 285
282 282 282 282 282 282 282 282 282 281 281 281 281 281 281 281 281 281 281 280 281 282 281 282 282 283 283 281 281 280 280 279 280 281 281 282 282 282 282 283 283 283 283 283 283 283 283 283 282 283 283 283 283 284 284 284 284 284 285 285 286 286 286 286 287 286 287 286 285 285 285 284 284 284 284 283 283 283 283 282 283 284 284 286 286
282 281 281 282 283 283 282 282 281 282 281 282 282 283 283 283 282 283 282 282 282 283 283 283 283 282 282 281 280 279 279 281 281 280 280 280 280 280 280 281 282 283 283 283 282 282 282 282 282 281 281 282 282 282 283 283 283 283 283 284 284 285 285 285 285 286 286 286 285 285 285 285 285 284 284 284 283 283 283 283 283 282 283 283 284
283 283 283 283 282 282 282 283 284 284 284 284 284 283 283 282 282 282 282 281 281 281 282 282 282 281 279 279 279 279 279 280 280 281 280 281 281 281 281 280 280 280 282 281 281 281 282 282 282 282 281 281 280 280 281 281 281 282 282 282 283 283 283 284 284 285 285 285 285 285 285 285 285 284 285 284 284 284 283 283 283 282 282 282 282
284 284 284 284 283 284 284 284 283 283 283 284 284 283 283 283 282 281 281 280 280 281 280 281 280 280 279 279 278 278 278 278 278 278 278 279 279 280 280 280 280 280 280 280 280 281 281 281 281 281 281 281 281 280 280 280 280 280 280 282 282 281 282 282 283 283 284 285 284 284 285 285 285 285 285 284 285 284 284 283 282 282 282 283 282
285 285 285 285 285 284 284 283 282 281 281 281 281 281 281 280 279 279 280 279 278 278 278 279 279 279 279 278 277 277 277 277 277 277 277 277 277 278 279 279 279 279 279 280 280 280 280 280 280 280 280 280 280 280 280 280 280 279 279 280 280 280 280 280 281 281 282 283 283 283 283 284 285 284 285 285 285 284 284 284 284 283 282 283 282
283 283 282 283 282 281 282 282 282 281 280 280 279 279 279 279 279 278 278 278 277 278 278 279 278 278 277 276 276 276 276 276 277 277 277 277 278 278 278 278 279 279 279 280 280 280 280 280 280 280 280 280 280 279 279 279 279 280 280 280 280 280 280 279 280 280 281 281 282 282 282 283 283 283 284 284 284 284 284 284 284 284 283 283 282
280 280 280 280 280 281 280 279 279 279 279 279 279 279 279 279 278 279 279 278 278 277 278 278 278 277 277 276 276 276 276 276 276 276 277 277 277 278 278 277 278 278 279 279 279 279 279 279 280 279 280 280 280 280 280 279 279 279 279 279 280 279 279 279 280 280 281 280 280 281 281 281 282 282 282 283 283 283 284 284 284 284 284 284 283
278 279 280 279 279 279 278 278 278 279 279 279 279 279 278 278 279 278 279 278 278 277 277 278 277 277 277 276 276 275 275 275 276 276 276 277 277 277 277 277 277 277 278 278 278 278 279 279 279 279 279 279 279 280 280 280 280 280 279 279 279 279 279 279 279 280 280 280 280 280 281 281 280 281 282 282 282 282 283 283 283 284 284 284 283
279 279 278 278 279 278 278 278 278 278 278 279 279 279 278 278 279 278 278 278 278 277 277 277 276 276 276 276 275 275 276 276 276 276 277 276 276 276 276 276 276 276 276 276 277 277 277 278 278 278 279 279 279 279 279 279 279 279 279 279 279 279 279 279 279 279 280 280 280 280 280 280 280 280 281 281 282 282 283 282 283 283 284 283 283
278 278 277 278 278 278 278 278 278 279 278 278 278 279 279 278 278 278 277 277 279 277 276 276 276 276 276 276 276 276 276 277 277 277 277 277 277 277 277 277 276 276 276 276 277 277 277 277 277 277 277 278 278 278 278 278 278 278 278 278 278 278 278 279 279 279 279 280 280 280 280 280 280 281 281 281 281 281 282 282 283 283 283 283 282
277 278 277 277 277 277 277 277 277 277 277 277 277 277 277 277 277 277 277 278 277 277 277 276 276 276 276 276 276 277 278 277 278 278 278 278 278 278 278 278 277 277 278 277 277 277 276 276 277 277 277 277 277 277 278 278 277 278 278 278 278 279 279 279 279 279 280 280 280 280 280 280 281 283 284 284 284 285 282 281 282 282 282 282 282
278 278 277 277 277 276 276 276 276 277 277 277 277 276 277 277 277 277 277 277 277 277 276 276 276 276 276 276 276 276 277 277 277 277 277 277 276 276 276 276 276 276 276 277 277 277 276 276 276 276 276 277 277 277 279 281 281 280 279 280 280 279 279 279 279 279 279 280 280 280 280 283 283 284 284 285 286 287 287 285 283 282 282 281 281
277 276 276 277 277 277 277 276 277 276 276 277 277 276 276 276 275 275 275 275 275 275 275 275 275 275 275 276 276 276 276 275 276 275 275 275 275 275 274 274 275 275 275 275 275 275 275 275 275 275 275 275 276 276 280 281 282 282 281 279 279 279 279 279 279 279 279 279 279 280 280 281 282 282 283 285 286 287 287 287 288 287 286 283 281
275 276 276 276 276 276 276 277 276 276 276 276 276 275 275 275 274 275 275 274 274 274 274 274 274 274 274 274 274 274 274 274 273 273 272 272 272 272 272 272 272 272 272 273 272 273 273 273 274 274 274 274 274 278 280 280 281 282 282 279 278 278 278 278 278 278 279 279 279 279 280 280 280 280 280 280 282 285 286 286 287 287 288 288 288
275 276 276 277 276 277 277 276 276 276 276 275 275 275 275 274 274 274 273 273 273 273 273 273 273 273 273 273 273 272 271 271 270 270 270 270 269 269 269 269 269 270 271 270 271 271 271 271 271 271 271 272 273 276 278 279 280 281 281 280 278 277 277 277 277 277 278 278 278 278 279 279 280 282 282 281 280 280 283 285 286 286 287 288 288
275 276 277 277 276 276 276 276 276 275 275 275 274 274 275 274 273 273 273 272 272 272 271 271 271 271 271 271 270 269 269 268 268 268 268 267 267 267 267 268 268 269 269 268 268 269 269 269 269 269 269 270 270 274 276 278 279 279 280 279 276 276 276 276 276 276 276 277 277 277 277 278 279 279 280 280 279 280 280 280 280 281 281 283 286
276 275 276 277 277 276 276 276 275 275 274 274 273 273 273 272 272 271 272 271 270 270 269 270 270 270 269 268 268 267 266 266 265 265 265 265 265 265 266 266 266 266 266 265 266 266 266 267 267 267 267 268 269 273 275 276 277 278 278 278 275 275 274 274 275 275 275 276 276 276 276 276 277 278 279 280 279 279 279 279 279 279 280 280 281
276 276 276 276 276 276 276 275 274 273 272 272 271 272 271 271 271 270 269 269 269 267 269 268 268 267 267 267 265 264 264 263 263 263 262 263 263 263 263 264 264 264 264 264 264 265 264 265 265 265 265 265 266 271 273 274 275 276 277 274 274 274 273 273 274 274 275 275 275 275 275 275 275 276 278 280 281 280 279 279 278 278 279 280 280
276 277 277 277 276 275 275 273 272 272 271 271 270 270 269 268 267 267 267 267 267 266 267 266 265 265 265 264 264 263 262 261 261 261 261 261 261 261 261 262 261 262 262 262 262 262 263 262 262 263 263 263 263 267 271 272 273 274 273 270 271 271 272 272 272 273 273 273 274 274 274 274 274 274 278 280 281 281 278 278 278 278 279 279 279
275 275 275 275 274 274 273 271 271 270 270 270 269 267 267 266 266 266 265 266 265 265 265 263 264 263 263 263 262 261 260 260 260 259 259 260 260 261 260 261 261 260 260 261 261 261 261 261 261 261 262 262 262 266 270 271 272 272 272 269 269 269 270 270 271 272 273 273 273 275 275 273 273 273 277 279 280 279 277 278 278 278 278 278 279
276 276 274 273 273 272 271 270 270 269 269 267 266 265 265 265 265 265 265 263 264 264 263 262 262 263 262 261 261 260 260 259 259 259 259 259 259 259 260 260 260 260 260 260 260 260 260 260 261 261 263 262 262 264 268 270 271 272 270 269 269 269 268 269 269 270 272 272 272 274 275 274 274 275 278 279 280 278 276 277 278 278 277 277 278
274 274 274 273 272 270 269 268 268 268 266 266 264 264 263 264 264 264 263 262 263 262 262 262 262 262 260 260 260 259 259 258 258 258 258 259 259 259 259 259 259 259 259 259 259 259 259 259 260 260 261 261 261 262 264 269 270 271 272 269 268 267 267 267 268 268 268 270 271 271 272 275 276 277 278 278 279 279 276 275 276 276 276 277 279
273 273 274 271 271 270 269 268 268 267 265 264 263 262 262 263 263 262 261 262 262 262 261 261 261 260 259 259 259 258 258 258 258 258 259 258 259 259 259 258 258 258 258 258 258 258 258 259 259 260 260 261 261 261 263 268 270 271 271 271 268 267 268 267 267 267 268 267 268 269 270 273 276 277 277 278 279 279 279 276 276 276 277 279 281
273 273 271 269 268 267 266 266 265 265 264 262 261 261 262 261 261 260 260 262 261 261 261 258 259 258 258 257 257 257 258 257 258 257 257 257 258 258 258 257 258 257 257 257 257 258 258 258 259 259 260 260 262 263 262 266 269 270 271 272 268 267 268 268 267 267 268 268 268 268 269 271 274 275 275 276 277 278 278 276 276 280 281 282 280
271 270 269 268 267 266 265 265 264 263 264 263 259 259 259 260 259 259 261 260 260 260 259 258 257 257 257 256 256 256 257 257 257 257 257 256 257 257 257 257 257 256 256 256 256 257 257 257 257 258 259 259 260 261 265 264 268 270 271 272 272 271 272 270 268 267 267 267 268 268 269 272 273 274 275 276 276 277 277 275 278 280 280 281 280
270 269 268 266 266 265 264 264 263 262 261 261 258 258 258 258 259 261 260 259 258 257 256 256 256 256 255 255 256 256 256 256 256 256 256 256 256 256 256 256 256 256 256 256 256 256 256 256 256 257 258 259 260 260 264 267 266 270 271 272 273 273 273 270 269 268 268 268 268 267 268 273 274 275 276 276 277 276 275 277 278 278 278 278 277
269 267 266 265 265 263 263 262 262 260 260 258 258 257 257 256 259 259 258 257 256 255 254 254 254 254 254 255 255 255 255 255 255 256 255 256 256 256 256 256 256 256 255 255 255 256 255 255 256 256 257 258 260 261 261 264 268 269 271 272 272 273 273 273 269 268 269 268 271 274 275 275 275 276 276 276 275 275 275 276 276 276 276 274 275
266 264 264 263 262 260 260 260 260 259 259 259 258 257 255 257 258 258 257 256 254 253 253 254 254 254 255 255 255 255 255 255 255 256 256 256 256 256 255 255 255 255 255 255 255 255 255 256 256 257 258 259 261 261 262 262 265 266 267 269 271 272 272 273 272 271 273 274 275 275 275 275 274 273 270 269 269 270 273 275 276 275 273 273 274
265 265 262 260 259 259 258 258 257 258 257 257 256 256 256 257 256 257 257 254 252 253 254 254 254 254 254 254 254 255 256 256 256 256 256 256 256 255 255 255 255 255 255 255 256 256 257 257 258 259 260 261 262 263 263 263 264 264 264 265 266 266 269 271 268 267 268 267 268 270 269 272 273 274 274 274 274 274 272 271 271 271 271 272 273
264 263 260 259 259 259 257 257 257 258 257 256 256 255 255 255 255 256 253 252 252 253 254 254 254 254 254 254 254 257 257 256 256 255 255 256 255 255 255 255 255 255 255 256 257 258 258 258 259 261 262 262 263 264 264 265 265 265 266 266 266 266 265 265 265 266 266 267 267 269 270 269 268 268 268 268 268 268 269 269 269 270 271 272 273
262 260 259 260 258 257 257 256 257 257 257 256 254 254 254 255 257 254 252 251 253 254 254 253 254 254 254 255 255 255 255 255 255 255 255 256 255 255 255 256 258 259 259 259 259 260 262 263 264 263 263 263 264 264 265 269 269 272 270 269 268 268 268 268 269 271 268 268 267 266 266 266 266 266 267 267 268 268 268 269 270 270 271 271 272
261 260 258 258 256 256 255 255 256 257 255 254 254 254 253 256 254 253 252 251 253 253 252 253 254 254 254 254 255 255 255 255 255 255 255 255 259 263 262 261 260 264 268 269 269 265 266 266 266 266 266 265 264 266 271 273 272 273 273 273 274 274 274 273 274 275 273 269 268 268 268 268 267 267 267 267 267 267 267 268 269 271 271 271 271
260 258 256 256 256 256 255 254 255 255 254 254 254 254 253 254 255 254 254 253 252 253 253 254 254 253 255 255 255 255 255 255 255 255 255 255 255 257 263 265 266 266 268 269 270 270 271 271 268 266 267 271 272 272 273 273 272 273 273 274 274 274 275 275 275 271 269 268 268 267 268 268 268 268 267 267 268 268 268 268 268 269 270 271 272
Wind_Speed
4 5 7 8 9 9 9 9 9 13 15 14 14 14 13 12 13 14 11 11 11 10 9 8 7 6 5 6 3 4 5 5 7 6 6 5 5 4 2 2 1 2 3 5 5 5 5 5 4 4 4 5 6 8 9 10 9 9 8 5 8 6 3 3 4 6 5 1 2 3 4 2 2 2 5 6 6 5 3 5 5 4 4 5 6
5 8 9 8 9 10 9 10 14 17 14 14 14 12 12 14 14 12 12 12 12 9 7 6 6 3 2 3 3 5 7 7 6 6 6 6 6 5 4 4 3 3 2 1 0 2 3 3 3 5 5 6 7 4 4 4 4 4 4 4 3 7 6 6 6 7 2 6 3 3 4 5 4 4 5 6 6 4 4 5 6 6 6 6 4
7 8 8 9 10 11 11 11 11 10 10 12 11 14 15 13 12 11 11 11 11 11 10 7 4 6 5 5 3 3 3 4 5 5 6 7 7 7 7 6 5 5 4 3 2 1 0 0 2 1 3 2 3 3 4 4 5 6 7 8 5 2 2 3 6 8 6 3 2 1 4 3 4 5 6 8 5 5 6 6 7 6 7 6 6
10 9 9 9 9 10 11 12 11 11 13 14 14 13 11 11 11 11 11 10 11 11 10 9 6 5 5 5 6 6 3 4 4 6 7 8 9 7 8 7 7 6 5 4 4 4 2 1 1 0 1 1 3 4 4 5 5 4 5 6 5 4 3 5 6 8 5 8 3 7 3 2 6 8 9 5 7 8 7 8 5 7 6 5 4
7 8 9 10 12 12 11 9 10 13 12 12 11 11 8 11 11 10 10 10 10 12 11 9 11 12 10 10 10 9 9 11 10 10 9 5 5 7 7 7 8 8 8 7 6 5 3 3 1 0 0 1 1 2 4 6 6 6 7 7 7 8 7 4 5 6 7 8 7 3 1 2 6 4 1 6 2 5 8 7 6 7 7 7 6
6 7 8 7 8 9 11 12 13 11 12 9 7 9 9 10 12 12 11 11 11 12 11 9 10 10 11 11 11 8 9 10 10 8 9 8 7 5 6 6 5 5 5 6 6 6 6 4 3 1 0 1 2 3 3 3 3 4 5 6 7 7 7 6 5 5 8 8 5 3 4 4 1 2 1 7 1 4 4 4 6 7 5 6 7
6 7 7 10 10 11 12 12 10 11 8 6 7 8 10 10 10 11 11 11 11 11 13 10 11 9 10 8 7 7 7 6 5 6 8 8 8 11 9 10 9 9 7 6 6 5 5 4 3 2 1 1 2 2 4 4 4 5 4 4 6 6 4 6 8 6 4 7 7 8 3 1 2 1 4 1 6 1 3 6 7 4 5 5 7
5 7 8 8 9 9 10 9 9 8 6 7 9 9 11 11 11 11 10 11 11 10 12 11 10 10 11 9 8 8 6 5 7 7 7 8 10 11 10 10 11 10 11 11 10 8 7 7 4 3 2 2 1 2 4 4 3 3 4 5 5 4 5 7 7 6 7 5 8 11 10 5 3 1 2 3 3 5 4 1 3 5 5 6 8
5 7 7 8 8 8 7 9 6 8 9 9 8 8 8 9 11 12 13 12 11 12 12 12 11 10 9 9 10 7 7 7 6 7 9 8 10 10 10 10 11 11 11 11 11 11 11 9 8 6 5 4 1 3 3 3 4 4 4 4 5 6 6 7 7 6 6 8 4 7 8 10 7 6 2 2 4 3 6 3 5 1 3 7 9
5 5 6 7 6 6 5 5 9 8 6 6 7 8 9 10 13 15 14 11 11 13 12 13 12 10 11 11 11 9 9 8 8 10 9 8 9 9 8 9 9 10 10 10 11 11 11 10 9 9 7 5 3 3 3 4 4 4 4 5 5 7 5 6 8 7 7 7 8 6 6 5 6 7 6 5 4 5 11 6 5 6 7 8 10
4 4 5 4 4 5 5 8 6 7 7 8 10 10 9 11 10 14 11 11 12 12 13 13 11 12 11 11 12 11 10 9 10 11 10 11 10 9 8 7 7 8 9 9 10 11 11 10 10 9 8 6 6 4 4 4 5 4 5 4 4 5 6 6 7 7 7 7 7 7 9 8 9 8 8 7 9 9 6 8 5 6 9 7 6
3 4 4 5 6 7 6 9 8 7 9 10 8 8 9 8 9 12 13 11 10 10 12 12 11 12 11 11 11 10 9 9 10 9 9 9 9 9 8 8 9 8 9 9 10 11 10 9 9 10 10 9 9 8 6 4 4 4 4 5 5 5 5 5 5 7 7 7 8 6 8 7 8 8 6 7 8 8 8 12 8 3 5 7 6
3 3 4 4 6 6 7 6 7 9 9 8 9 8 8 9 10 12 12 10 11 10 12 11 12 11 10 10 9 8 9 9 9 9 8 8 8 9 10 9 9 10 10 10 11 12 9 10 10 9 9 9 8 8 8 7 6 5 4 5 5 5 6 6 6 6 7 8 7 8 8 8 9 7 6 7 6 6 8 10 6 3 10 5 4
2 3 4 4 4 4 4 5 5 5 6 8 7 8 7 8 9 11 11 10 10 11 11 11 11 9 8 9 8 8 9 9 8 9 8 8 7 8 8 8 8 8 9 9 8 9 9 9 8 9 8 8 8 8 7 7 7 7 5 6 5 6 5 6 7 6 7 7 6 6 7 7 8 6 7 6 7 6 8 9 9 6 4 8 3
2 4 4 4 4 4 4 4 4 5 5 6 6 6 6 8 8 10 10 10 10 9 9 10 9 9 8 8 8 7 7 7 7 7 8 9 9 9 8 8 8 8 8 8 9 9 8 9 9 9 10 9 9 9 9 8 7 7 6 6 6 5 5 5 6 6 8 7 7 7 7 7 6 6 6 7 7 9 9 8 7 12 10 7 7
2 3 4 3 3 4 4 4 4 4 5 5 6 5 7 6 6 7 7 7 7 7 6 6 6 6 8 9 8 7 6 6 6 6 7 7 7 8 8 7 7 6 7 8 9 9 9 10 9 9 9 9 9 8 8 8 8 8 7 6 7 5 5 6 6 5 7 7 7 6 6 7 6 6 6 7 7 7 8 7 6 9 11 14 7
2 4 3 4 4 4 4 4 4 6 7 8 6 5 5 5 6 7 6 5 5 5 4 4 4 6 7 7 7 6 6 6 6 6 6 6 6 7 7 7 7 7 7 6 8 8 8 9 9 10 10 10 10 9 8 7 7 7 7 7 7 7 5 6 6 6 6 6 6 6 7 6 7 5 6 6 7 6 6 7 8 10 9 11 12
2 2 3 3 3 4 4 5 5 6 5 5 4 4 4 5 5 6 6 8 6 4 4 4 4 5 5 5 4 4 4 4 4 4 4 5 6 6 6 7 7 6 6 6 8 9 9 9 8 8 8 8 9 9 9 9 8 8 7 7 6 6 6 6 6 5 6 6 6 6 5 6 6 6 6 6 6 7 7 7 7 8 8 12 12
3 3 3 3 3 4 4 4 4 4 3 3 3 4 6 6 6 6 6 4 4 4 4 4 5 4 3 3 3 3 3 3 3 3 3 4 4 4 5 4 4 5 6 6 7 7 7 8 8 9 9 9 8 8 8 8 8 8 8 8 8 6 6 7 7 6 6 5 5 6 6 6 5 7 6 6 6 6 7 7 7 6 8 11 11
4 3 3 4 3 4 4 4 4 3 3 2 3 4 5 4 5 4 4 4 4 6 5 6 5 5 5 4 4 4 4 4 4 5 6 6 4 4 4 4 5 4 4 4 5 5 5 6 6 6 7 7 7 7 6 6 7 6 7 7 7 6 7 7 7 6 6 6 6 7 7 6 6 6 6 6 6 6 6 7 7 7 8 8 8
5 5 5 4 4 2 2 3 3 2 1 2 3 3 2 3 3 3 3 4 4 3 3 3 3 4 4 4 4 4 5 4 5 5 5 5 6 6 6 5 5 7 6 6 5 5 5 5 5 5 5 5 5 7 6 5 6 7 7 6 6 6 6 7 7 8 6 5 7 7 8 7 6 6 7 6 6 6 6 6 6 7 8 7 7
5 5 4 4 4 3 2 1 1 1 1 1 1 0 0 0 0 1 1 2 2 3 3 3 3 3 3 3 4 4 4 4 4 4 4 3 3 3 3 4 5 6 5 7 8 8 8 9 8 8 7 6 6 5 6 5 6 6 7 6 7 7 7 7 5 7 8 6 5 7 9 8 7 7 7 7 7 7 6 6 7 7 8 8 7
5 5 5 5 4 4 3 2 1 1 1 1 1 2 2 2 2 2 1 2 2 3 3 2 2 3 3 3 2 3 3 3 3 4 3 4 3 3 3 3 4 4 4 4 5 6 7 7 7 8 8 9 8 8 7 6 7 6 7 7 7 6 7 7 7 7 7 6 7 6 8 8 7 7 8 7 6 7 7 7 9 6 8 8 7
4 4 3 4 3 1 1 0 0 1 2 4 3 2 3 3 4 4 4 5 4 4 3 2 2 3 2 2 2 2 2 3 3 4 4 4 3 4 3 3 4 4 5 5 4 5 5 7 8 8 8 8 9 8 7 6 7 8 8 9 8 7 7 7 7 7 7 6 7 7 7 7 7 8 9 8 7 7 7 8 8 7 7 9 7
5 4 3 1 1 1 2 3 3 3 4 3 3 4 3 4 3 4 5 4 4 3 3 3 1 3 4 3 4 3 3 4 3 4 4 5 4 4 4 4 5 5 5 6 7 5 6 6 7 8 9 10 10 10 11 11 9 7 8 9 9 8 7 8 7 7 7 7 7 7 8 6 6 8 9 8 8 8 8 8 9 8 8 8 6
4 3 1 2 4 3 3 3 4 4 4 4 4 4 4 4 4 4 4 4 5 3 3 2 2 2 4 4 4 3 4 4 4 4 4 4 5 4 4 4 4 6 6 5 7 7 6 8 8 8 8 9 10 10 10 11 11 11 10 9 8 8 8 8 8 8 8 7 7 8 7 6 6 7 9 8 8 9 9 9 10 9 8 7 8
5 5 4 2 1 4 5 4 4 5 4 4 5 4 4 4 5 5 5 5 4 2 3 3 3 3 3 4 4 4 4 4 4 5 4 4 4 4 4 4 4 4 5 6 5 7 6 7 8 8 8 9 9 9 10 10 10 10 10 11 11 11 10 8 8 8 8 8 8 8 8 7 8 8 9 9 9 9 9 10 10 10 9 8 9
3 3 4 5 6 5 5 5 5 6 5 4 4 5 3 3 3 4 5 4 3 2 3 3 3 3 3 3 3 3 2 3 3 4 5 5 6 6 5 4 4 5 6 6 7 8 8 6 7 7 8 7 8 9 9 8 8 9 10 11 11 11 12 11 11 10 8 8 9 9 9 9 9 9 9 9 8 9 8 9 9 8 8 9 9
4 5 5 5 5 3 3 3 3 4 4 3 4 4 3 2 1 3 3 4 3 3 3 2 3 5 6 5 6 5 6 7 8 8 9 10 9 9 9 9 9 9 9 9 9 10 10 11 9 9 9 8 9 10 8 7 8 10 10 10 11 11 12 12 12 12 11 10 9 9 9 10 11 14 17 15 13 11 8 9 10 8 8 9 9
6 6 4 4 3 3 3 3 3 3 2 0 1 3 4 5 5 4 5 6 6 6 6 6 6 6 6 7 7 7 8 8 9 9 9 9 10 10 10 11 11 10 10 10 10 10 10 11 13 13 12 11 10 9 10 17 17 12 11 10 10 10 11 11 12 13 13 12 12 11 10 15 17 18 19 19 17 18 19 14 11 9 9 9 9
4 3 3 4 4 3 3 4 3 3 3 3 3 3 3 3 3 3 3 3 4 5 5 4 5 4 5 6 6 7 7 8 7 8 8 9 11 10 10 11 12 12 13 13 12 13 13 12 12 13 14 14 12 11 21 23 23 25 16 11 11 11 11 12 12 12 13 14 13 12 11 13 14 15 15 18 19 19 19 21 22 20 16 12 10
4 4 4 4 4 5 5 5 4 4 4 4 3 3 3 4 3 4 4 3 4 4 4 4 3 4 4 6 6 6 7 7 7 7 8 8 9 10 10 11 12 13 13 12 14 14 14 14 13 13 14 14 14 19 27 26 26 25 22 15 11 11 11 12 12 13 13 13 13 13 12 11 11 12 12 11 14 17 20 21 22 22 21 22 20
6 6 6 7 7 5 6 5 4 4 4 3 3 4 4 3 4 3 3 4 4 4 4 4 4 5 5 6 6 7 7 7 7 7 8 9 10 10 10 11 12 12 11 13 14 14 15 14 14 15 15 16 15 22 27 28 27 27 27 22 12 12 12 12 13 13 13 14 13 13 13 12 11 17 15 12 12 12 15 19 21 23 23 22 22
5 6 7 5 4 4 4 4 4 4 4 3 4 3 3 3 2 3 4 4 4 4 3 4 4 5 6 6 7 6 7 7 8 9 9 9 10 10 10 9 10 11 11 12 12 13 14 14 14 15 15 16 17 20 27 28 28 28 28 24 14 13 13 13 13 13 12 13 13 12 12 13 12 13 12 13 13 13 13 12 12 12 12 15 18
6 5 5 6 7 5 5 5 4 4 3 3 3 2 2 2 2 3 3 3 3 3 4 4 4 5 6 6 8 7 8 8 9 9 10 10 9 10 10 9 9 11 12 12 12 12 12 12 12 13 13 17 16 26 28 29 28 28 28 25 13 12 11 12 12 13 13 13 13 13 13 14 14 14 12 15 14 14 13 14 13 14 13 13 13
7 8 7 8 8 9 8 6 4 4 3 3 2 1 2 1 1 3 3 3 3 4 4 4 5 6 6 7 7 7 7 8 9 9 9 10 9 9 11 11 10 9 8 9 10 10 11 13 11 12 13 17 17 26 27 28 28 27 30 16 12 12 12 14 13 13 11 10 11 12 13 12 13 15 19 29 26 19 16 16 17 16 15 14 14
6 8 9 6 6 6 7 6 5 3 4 3 2 2 2 2 3 3 3 3 3 3 3 4 4 5 5 6 7 6 7 7 7 9 9 9 10 11 9 8 10 10 10 10 11 10 11 11 15 14 13 16 16 20 25 27 27 28 23 14 15 12 14 14 14 14 12 14 14 12 13 13 15 15 22 28 29 26 18 18 18 17 16 15 15
4 3 6 6 5 6 5 7 6 5 4 3 2 2 2 3 3 3 3 3 3 2 3 3 3 3 5 5 4 5 6 7 7 8 9 9 8 8 8 8 9 11 11 10 10 12 10 10 12 13 12 14 14 18 26 26 26 26 22 15 12 12 13 14 13 15 12 12 15 28 25 18 17 18 26 30 30 25 19 18 18 18 19 18 17
9 12 10 7 6 7 7 5 5 5 3 3 3 2 2 1 1 2 1 1 1 2 3 3 4 4 4 4 4 4 5 7 8 8 8 10 9 9 9 8 8 8 10 9 10 11 11 9 9 12 19 19 15 16 23 25 26 25 20 13 13 10 13 14 15 15 11 10 13 15 24 24 22 23 32 30 31 25 18 18 18 17 19 19 18
4 4 7 8 8 7 4 4 4 5 3 3 2 2 1 1 1 1 1 1 1 2 2 3 4 5 3 4 4 5 6 6 9 9 8 8 8 9 9 9 9 8 10 9 8 10 11 11 10 11 12 12 14 13 17 26 24 25 25 16 12 12 13 15 14 15 13 10 12 14 17 23 28 30 31 32 30 31 23 19 18 18 19 21 16
9 9 8 7 5 6 6 5 4 4 3 2 2 2 1 0 1 1 1 0 1 2 3 3 4 5 4 5 4 5 8 7 7 9 8 8 7 8 9 9 10 9 8 10 11 11 11 10 9 10 10 10 10 14 14 24 25 25 26 22 12 12 11 12 12 13 13 16 15 13 12 18 25 26 27 28 28 28 26 20 18 18 19 21 22
3 7 7 7 6 6 6 4 3 4 3 2 2 1 0 0 0 1 1 1 2 2 3 3 4 5 5 6 6 6 6 7 7 7 9 9 8 8 8 10 9 9 11 11 11 10 9 10 9 10 10 11 12 19 15 20 25 26 25 27 17 13 15 14 15 12 13 13 15 14 15 20 27 28 29 29 31 30 31 21 19 27 31 32 25
9 6 5 8 7 7 6 6 4 3 3 2 2 1 0 1 1 2 0 1 2 2 3 4 4 6 6 6 6 7 8 6 7 8 9 11 9 9 9 8 9 10 10 11 11 10 10 10 10 9 9 10 11 11 20 18 23 26 27 26 28 23 27 19 15 14 12 13 11 13 15 25 29 30 30 31 31 33 28 22 32 32 32 35 31
5 6 9 6 7 6 6 4 4 3 2 2 2 0 1 1 4 1 1 1 2 3 4 4 5 6 7 7 6 7 7 6 7 8 8 9 10 9 9 8 9 9 10 11 10 9 9 9 9 9 9 9 10 10 14 22 21 27 27 28 28 29 29 18 15 12 10 10 11 11 14 28 30 30 31 31 30 28 22 30 32 36 36 32 21
11 9 7 5 8 7 6 4 4 3 2 1 1 0 1 2 2 0 2 3 3 4 4 5 6 6 7 7 6 7 7 7 7 7 8 8 9 8 10 9 8 9 9 10 11 9 10 10 10 11 11 10 10 10 10 14 23 25 28 28 29 30 28 29 20 14 14 14 21 31 33 32 31 31 32 31 26 25 28 28 30 30 30 17 16
6 6 6 5 6 5 5 4 3 3 2 1 0 1 1 3 1 2 3 3 4 4 5 6 6 6 7 7 7 8 7 7 7 6 7 7 8 9 9 10 9 9 9 10 11 10 10 10 10 10 11 11 11 10 11 11 12 17 19 26 31 30 29 29 27 22 28 33 32 31 34 33 29 25 19 13 12 14 22 28 31 29 16 14 14
11 9 8 7 6 6 5 4 4 3 3 1 1 1 2 3 4 4 4 3 4 4 6 6 6 7 6 6 7 7 7 6 5 6 6 7 7 6 8 10 9 10 10 10 11 10 11 10 11 12 11 11 11 11 10 10 10 11 11 14 16 17 24 27 19 15 17 17 20 21 18 24 24 30 30 28 25 24 20 17 14 13 13 13 14
6 7 6 6 6 6 5 4 4 3 3 2 2 2 3 3 4 4 4 4 4 5 6 6 7 6 6 6 7 8 8 7 6 6 8 9 7 6 7 10 11 10 11 11 11 11 11 10 11 11 11 10 10 10 10 11 11 12 12 11 11 12 11 11 12 13 14 15 15 17 21 16 14 13 13 11 11 11 12 13 12 12 13 15 19
9 6 6 6 5 5 4 4 3 2 2 1 3 3 2 3 4 4 4 4 5 5 5 6 6 6 6 5 6 6 6 7 8 7 7 8 9 8 8 11 13 10 10 10 8 8 9 10 10 10 11 10 11 11 9 15 18 24 21 16 12 10 10 10 13 20 16 12 11 11 11 11 11 12 12 11 10 10 11 11 14 12 11 13 13
5 5 5 4 5 4 4 3 2 2 1 2 3 3 3 4 4 4 4 4 5 5 5 6 5 5 6 6 6 6 6 6 7 8 9 11 12 17 13 11 12 20 26 26 22 14 13 11 10 9 9 11 11 13 26 32 30 30 32 32 28 29 27 21 23 28 19 11 9 10 10 11 12 10 11 11 11 10 11 11 10 15 15 11 11
5 5 4 4 4 3 2 1 2 2 2 3 4 3 4 4 4 4 4 5 4 5 5 5 5 5 6 6 6 7 6 6 6 7 7 9 12 15 19 20 20 22 23 24 24 26 26 25 17 13 13 25 28 29 30 29 30 29 30 30 30 28 28 27 27 18 10 7 8 8 9 9 10 10 10 12 11 11 11 11 11 10 10 13 13
Wind_Direction
20 28 29 24 22 20 19 22 23 33 28 22 25 22 23 23 25 22 7 15 23 14 15 20 14 2 24 37 29 8 12 26 37 22 33 25 24 31 42 55 86 116 147 158 174 170 189 177 168 169 169 179 183 193 190 194 195 191 186 178 177 183 204 145 157 136 135 204 345 324 304 295 279 273 249 245 238 237 233 212 221 196 199 191 202
29 33 27 28 27 25 28 30 28 32 20 23 23 20 24 25 28 17 13 16 20 15 3 29 21 15 50 26 53 23 25 30 25 20 16 24 29 32 34 39 50 55 43 28 82 155 164 170 187 189 179 194 203 199 192 195 174 174 149 167 207 184 204 177 171 129 184 191 184 281 306 298 278 289 264 249 234 234 224 224 218 211 208 206 198
38 37 29 29 28 30 34 34 36 36 32 29 19 25 25 25 23 21 19 19 16 14 14 9 352 10 29 13 30 54 54 48 54 25 24 34 26 20 20 25 40 45 39 49 61 43 41 143 250 202 201 203 179 174 167 184 193 189 182 184 193 236 204 176 174 191 176 133 114 77 274 269 299 270 258 243 231 225 223 222 218 218 216 202 195
42 29 26 23 31 34 34 34 30 34 32 27 22 22 23 22 21 22 22 21 20 16 17 5 4 9 24 32 23 59 36 2 39 39 28 32 25 15 19 10 17 28 32 39 35 45 46 31 34 24 290 226 223 209 193 206 192 194 197 214 174 182 211 222 196 201 151 137 241 211 224 157 297 251 234 245 197 219 217 225 215 220 219 215 197
43 34 29 27 32 32 31 30 31 39 35 32 24 22 23 23 22 26 25 23 20 18 19 18 26 24 13 19 26 17 15 18 19 5 7 12 20 18 1 11 15 16 11 15 23 24 32 45 64 89 222 309 306 273 236 225 211 207 201 200 194 200 213 213 217 206 212 214 170 95 7 274 230 258 358 277 227 219 232 227 221 220 216 212 208
48 41 33 32 37 34 33 32 34 34 34 26 26 27 29 29 28 28 29 26 19 17 18 31 43 43 35 32 23 19 25 18 12 353 346 359 343 317 355 20 18 16 20 13 12 11 13 22 41 59 83 171 188 227 254 272 253 232 215 212 215 226 219 198 224 227 225 234 233 210 147 178 221 264 110 275 325 242 254 232 229 227 218 214 221
37 42 34 38 29 38 35 34 30 35 26 19 31 32 35 38 37 37 35 30 21 19 20 26 38 44 54 54 46 36 27 7 354 6 13 358 10 13 356 359 5 7 357 11 10 12 14 17 23 10 334 239 230 235 251 241 237 228 222 219 227 223 220 225 216 218 224 253 253 255 258 166 153 123 239 350 313 314 245 233 245 243 236 233 230
44 43 41 38 39 40 39 27 30 29 19 31 34 30 33 35 39 40 40 37 29 23 29 27 37 35 43 43 43 33 25 1 1 4 17 18 23 16 11 4 2 6 2 355 358 357 358 355 11 14 357 325 300 241 249 255 249 242 216 220 229 228 216 229 231 207 206 226 215 242 250 224 172 154 165 209 230 281 302 300 273 241 242 240 237
40 50 43 38 37 36 34 34 19 28 27 31 31 31 33 35 42 43 42 37 30 30 34 31 35 37 46 43 42 28 15 6 357 21 23 14 26 14 16 7 8 7 12 9 8 4 356 350 345 346 346 331 326 299 288 290 269 261 247 230 222 225 214 220 228 226 216 235 206 241 241 249 247 236 204 162 234 276 272 221 260 287 235 251 246
34 44 46 43 33 32 25 32 34 26 22 28 35 35 34 36 39 43 37 36 31 33 35 36 35 35 40 38 43 29 18 11 21 21 19 16 27 19 13 14 6 6 5 10 10 5 360 355 349 340 337 339 346 307 310 309 295 281 264 245 237 237 230 223 225 229 222 228 222 229 223 239 256 271 254 251 261 202 254 260 222 222 237 241 229
35 37 35 43 26 30 20 42 27 25 22 30 31 30 29 34 37 47 37 36 33 35 36 36 36 36 39 35 35 30 19 23 25 20 15 19 20 15 16 8 13 10 7 6 9 4 358 358 356 344 337 335 333 331 309 297 296 296 295 291 266 246 243 237 236 237 236 233 229 223 236 222 231 229 233 223 233 251 266 260 257 225 228 257 252
38 44 38 27 31 28 28 35 28 22 31 31 31 30 34 33 34 46 36 31 32 31 40 39 41 38 39 36 34 28 26 27 29 25 16 22 17 16 7 15 13 8 12 8 6 358 359 353 354 357 354 348 341 337 326 316 305 310 304 298 288 277 273 262 252 243 237 240 240 233 237 235 238 237 226 213 219 242 241 261 256 269 280 238 269
52 55 48 38 41 31 33 27 29 31 31 29 30 31 32 35 34 44 35 26 27 27 34 34 38 37 37 37 37 33 33 31 25 24 13 21 17 19 18 16 8 14 7 5 359 355 354 357 355 355 353 351 344 347 337 335 333 321 304 299 293 287 272 266 259 250 240 236 240 239 238 234 239 235 226 227 225 231 235 259 255 178 256 280 273
54 47 49 49 42 41 40 40 39 34 32 32 32 35 33 39 34 45 36 29 26 29 27 30 31 31 33 40 38 37 36 34 29 25 14 19 20 24 22 17 13 12 1 5 354 352 356 352 350 350 352 350 352 348 346 339 338 332 321 312 299 287 290 277 269 271 269 260 252 250 244 240 242 231 233 223 227 221 239 236 260 255 211 260 289
55 63 59 57 51 57 58 49 47 43 37 38 37 36 39 40 38 41 39 27 32 29 29 30 27 24 28 33 37 36 38 36 33 27 21 19 16 23 22 17 17 2 2 349 356 1 359 357 355 354 353 350 349 350 347 344 342 338 331 317 310 301 298 289 280 272 272 270 266 256 258 253 246 236 229 233 221 227 235 232 222 262 268 244 260
66 81 71 65 73 60 53 50 47 46 46 46 43 39 46 42 46 48 47 35 34 33 32 34 29 33 35 36 31 34 35 38 36 27 25 25 20 23 17 20 13 2 358 358 355 359 359 357 358 358 352 352 349 347 345 343 340 339 329 330 320 313 315 305 286 285 277 271 267 273 273 266 261 250 240 239 234 229 228 233 219 238 253 272 251
103 98 102 86 65 52 55 52 44 42 41 38 35 41 58 53 50 47 40 43 40 37 39 31 31 43 37 40 34 34 37 38 34 29 26 24 30 21 19 8 10 13 2 1 355 357 359 358 356 353 354 351 349 349 345 342 341 337 333 328 321 317 321 303 297 288 275 275 277 268 261 269 268 260 254 256 251 248 234 229 219 231 234 250 264
114 116 113 113 102 83 65 55 55 59 60 49 42 39 56 61 57 51 40 34 21 27 32 44 40 50 44 38 37 45 47 41 38 33 25 32 25 23 13 14 8 359 6 357 358 357 356 359 355 351 350 349 348 344 346 344 345 341 335 328 315 316 311 305 293 282 281 277 276 281 272 270 269 271 256 245 247 244 242 231 228 231 222 240 251
149 146 131 118 101 93 87 80 78 88 97 101 66 52 42 38 40 50 39 25 9 7 11 21 34 33 41 36 45 35 41 47 39 37 38 45 31 19 12 356 351 354 356 354 355 354 354 350 354 347 347 347 343 345 343 342 343 339 337 330 325 328 320 308 301 303 292 288 283 284 282 273 269 268 266 256 249 251 248 240 242 228 229 234 244
185 174 167 155 140 128 119 113 102 98 93 78 68 53 49 37 44 29 29 24 13 15 11 18 5 15 0 7 14 24 24 26 21 21 23 23 16 11 0 357 345 328 331 332 336 335 334 334 335 334 333 336 337 333 336 331 332 331 326 328 320 326 323 317 311 308 304 303 297 290 282 278 277 274 274 267 258 246 244 249 243 234 238 231 234
184 179 177 167 161 153 148 162 157 160 100 85 65 73 45 44 38 36 39 2 6 350 6 358 360 355 6 360 351 1 7 6 10 17 16 7 2 1 358 348 341 351 347 340 336 327 316 312 310 311 314 316 321 322 328 330 330 327 323 315 316 322 322 316 316 313 310 304 300 295 291 282 278 275 271 271 271 258 250 248 246 245 247 233 221
178 180 160 152 159 166 176 184 99 88 72 83 22 59 37 31 320 327 359 349 353 330 339 331 341 344 345 336 335 339 354 356 1 353 349 345 334 340 329 343 347 325 345 336 333 335 334 331 329 320 314 306 302 305 311 322 319 320 317 319 320 322 319 313 312 308 311 310 301 298 296 294 287 278 279 275 268 269 259 255 247 237 245 245 221
176 164 166 169 173 179 182 179 170 177 219 244 266 212 217 224 241 239 186 260 226 249 262 269 287 305 301 312 317 315 336 337 338 317 312 306 294 299 299 305 306 306 311 311 312 317 319 318 315 313 315 316 312 309 307 308 305 303 301 301 303 308 309 309 312 303 302 303 306 299 296 296 296 291 283 274 271 267 261 256 257 237 246 247 233
184 174 170 177 189 173 127 205 281 230 214 220 217 229 229 223 220 203 207 236 245 239 243 269 305 305 301 326 319 307 332 320 328 303 298 284 282 283 285 282 278 287 297 293 295 294 296 303 304 306 308 307 307 302 299 291 289 294 295 294 295 295 292 290 289 291 293 297 293 297 291 291 295 294 288 285 276 269 266 264 262 254 244 251 238
180 172 187 167 111 193 223 227 222 227 225 227 230 232 233 242 219 214 232 236 240 244 235 265 288 311 315 327 305 310 306 296 289 295 289 291 291 296 303 298 301 298 293 298 297 294 292 291 293 296 300 303 303 305 306 305 300 289 283 285 286 286 283 281 277 277 281 280 281 275 279 283 282 285 288 287 282 275 270 267 264 262 254 250 240
176 192 163 212 214 222 243 239 234 228 215 217 232 241 256 266 262 230 228 246 242 228 220 227 230 240 280 285 274 278 259 253 259 264 263 264 267 275 282 287 284 290 296 291 288 293 287 289 286 282 283 286 288 290 290 289 293 299 299 291 280 271 271 272 274 272 270 269 271 273 272 270 269 270 275 277 279 278 276 271 269 267 260 255 252
185 194 207 215 249 236 225 227 219 221 219 221 222 236 244 256 274 265 235 236 255 224 215 203 222 215 244 256 255 247 243 245 250 252 256 259 261 264 265 276 268 260 272 279 276 277 278 270 275 275 273 275 277 277 280 284 288 290 290 291 295 294 289 283 271 266 264 264 263 265 268 265 261 256 261 265 269 273 271 268 266 268 265 262 259
194 203 195 202 218 227 229 231 227 227 229 235 230 226 235 245 280 333 343 342 331 282 251 226 217 228 225 241 239 244 253 283 302 319 326 328 326 324 321 306 298 298 298 295 296 291 286 273 269 270 268 266 268 272 272 272 274 279 287 289 290 292 292 292 291 285 275 263 258 257 259 260 257 257 255 257 250 257 263 268 266 264 264 260 260
199 218 216 213 227 256 289 292 278 299 293 313 345 356 2 348 11 355 4 5 329 347 344 358 6 9 358 346 343 348 351 354 349 347 347 343 340 336 333 333 328 323 317 313 309 307 307 305 297 287 286 283 280 279 279 279 284 285 280 280 283 285 288 291 290 288 284 279 271 261 257 256 256 258 257 255 254 248 249 260 261 258 259 259 259
211 218 221 230 232 240 245 255 280 258 249 310 357 17 32 36 24 17 27 4 15 23 27 19 15 0 349 347 348 351 355 353 353 349 345 342 338 336 332 329 325 321 319 316 315 313 309 307 308 308 305 301 295 292 287 293 297 295 294 293 291 289 287 285 285 287 285 280 276 274 268 259 258 259 261 263 260 257 254 247 250 251 249 254 254
230 235 200 173 161 145 133 120 135 141 143 123 115 99 95 75 57 48 35 5 25 24 25 20 0 353 345 351 356 353 354 356 352 348 344 341 336 334 331 328 326 325 323 322 320 316 313 311 311 309 308 306 303 300 301 305 307 307 305 301 297 293 289 286 282 279 281 284 283 277 274 272 269 264 261 259 259 259 260 260 256 249 241 239 250
210 198 180 169 167 173 143 134 126 119 113 121 124 134 102 58 41 34 16 8 28 28 21 11 360 354 358 357 353 353 357 353 352 344 338 334 331 331 330 327 323 322 320 319 315 313 312 313 311 310 307 305 303 304 307 311 312 312 311 307 301 295 291 286 285 282 281 280 281 281 279 276 271 267 265 261 258 256 257 259 261 260 255 247 239
190 184 184 180 178 162 152 148 139 131 113 101 104 82 69 62 43 12 24 25 28 19 10 11 6 357 0 358 360 359 348 346 344 342 335 336 333 326 324 324 318 316 316 313 313 315 311 312 313 311 309 306 303 305 309 312 312 313 312 311 304 298 293 289 286 284 283 282 281 280 280 275 273 272 270 267 268 265 257 255 257 262 262 257 252
199 190 180 179 155 155 153 147 138 131 117 102 69 80 85 76 61 30 41 17 25 10 16 0 7 358 5 1 358 352 347 344 343 339 336 330 327 320 318 315 311 313 312 309 308 308 308 310 312 312 308 305 301 305 309 311 311 311 310 309 303 298 291 286 285 283 281 281 280 282 283 282 279 277 273 272 271 268 270 267 263 259 257 258 257
203 198 185 173 166 156 140 132 136 126 109 103 85 74 85 75 69 64 45 36 24 12 6 6 8 8 7 359 359 354 347 341 337 334 330 324 320 317 316 318 316 312 314 311 312 312 310 312 312 310 307 303 302 308 311 311 310 310 308 307 299 294 288 283 280 278 278 277 278 278 278 279 282 281 279 279 276 273 270 268 267 263 258 255 252
204 182 185 173 176 167 160 146 127 118 114 108 92 81 84 66 64 60 43 28 24 13 360 17 13 8 7 2 357 343 338 333 328 325 322 317 316 315 317 318 311 306 301 303 301 303 306 312 314 313 309 303 305 311 313 312 311 310 308 306 303 297 292 286 282 280 276 275 276 276 278 279 282 283 284 285 284 283 278 272 266 264 263 259 255
199 183 177 175 158 149 140 127 128 122 114 89 68 61 65 43 35 24 32 16 19 7 16 24 13 6 5 355 346 335 326 323 321 316 313 312 314 314 311 311 304 304 305 306 304 306 313 313 311 310 307 303 303 312 313 312 313 312 310 304 299 292 290 289 287 289 287 284 280 277 280 281 279 276 280 281 281 281 279 276 271 267 263 261 260
136 110 125 136 133 114 124 131 128 108 99 94 82 77 61 44 29 10 16 2 5 8 32 16 1 356 344 339 330 322 314 313 311 308 307 305 305 300 298 305 301 304 303 303 305 304 302 303 302 301 302 299 300 308 310 310 310 309 306 302 297 292 286 285 282 280 275 275 278 282 282 282 282 282 284 282 281 282 281 279 275 269 267 262 260
165 158 153 155 145 137 134 124 120 112 107 103 89 76 72 57 25 359 0 341 336 36 16 356 336 332 324 319 311 308 305 304 302 300 301 301 302 299 299 298 292 291 291 297 298 297 297 294 288 291 300 301 298 304 308 308 306 305 304 297 294 289 289 291 292 290 285 282 285 287 288 286 285 284 284 282 280 278 275 274 274 271 266 261 259
151 143 147 141 137 125 117 115 120 127 119 103 95 91 81 87 349 8 344 305 44 21 350 334 322 315 306 303 303 301 296 295 296 294 292 289 292 294 294 296 293 289 291 293 289 290 292 295 293 292 293 295 297 298 303 304 304 303 303 301 292 289 289 290 289 291 292 282 280 281 281 283 283 282 280 278 275 272 270 270 270 270 269 267 264
166 159 145 139 144 140 142 144 136 130 125 118 100 91 64 46 344 344 283 32 33 346 332 316 311 303 299 298 295 291 291 286 281 287 289 289 288 289 295 293 292 292 286 291 292 291 292 291 290 287 288 289 290 296 300 303 304 303 301 301 294 289 289 290 291 290 290 292 292 290 290 292 292 292 291 290 288 282 275 264 259 257 259 266 269
133 147 144 137 129 124 122 120 128 129 129 106 95 78 72 256 285 267 256 60 346 318 306 302 297 297 295 293 289 284 278 282 285 287 291 290 286 285 287 288 287 292 295 293 293 293 292 290 288 287 286 287 291 296 296 298 299 300 299 298 297 289 288 286 284 278 285 289 293 296 297 296 295 293 291 290 289 288 287 286 278 275 271 268 266
159 166 168 145 141 149 153 151 145 131 120 120 98 87 240 262 262 262 205 345 303 306 297 291 292 292 290 288 285 283 285 284 287 287 288 290 294 294 289 285 291 297 296 295 295 293 293 292 291 289 285 283 283 282 289 291 294 297 297 297 294 293 292 291 288 287 285 281 281 281 284 287 287 286 285 283 281 281 282 280 280 278 275 270 270
170 156 157 146 143 150 149 151 141 130 124 123 120 148 231 263 269 268 303 305 305 294 294 292 288 286 287 286 281 281 280 283 283 285 283 287 293 293 292 295 298 299 300 298 293 291 290 287 290 291 285 282 279 278 281 288 292 293 297 297 296 295 295 290 285 280 282 280 283 279 277 281 283 283 284 285 285 284 282 281 281 280 279 282 281
170 165 156 149 155 160 151 158 154 144 148 139 150 141 258 270 259 350 289 289 287 293 295 288 285 283 282 280 282 281 284 280 278 278 287 290 291 297 301 300 301 299 295 291 290 290 289 289 291 289 288 285 282 280 278 279 286 290 293 294 294 293 293 292 290 283 276 276 279 284 288 290 291 290 290 291 291 292 290 288 285 283 283 280 277
136 143 153 144 132 135 146 165 192 164 159 158 160 154 245 251 277 287 285 283 287 294 291 283 282 281 281 287 290 288 280 276 277 273 270 277 285 299 299 299 299 291 288 287 288 288 284 285 284 282 285 286 284 282 280 276 272 274 274 279 282 284 285 286 285 286 287 288 289 290 290 290 291 289 287 279 271 272 273 276 280 282 281 274 272
170 163 141 135 138 144 165 171 194 207 173 213 217 235 225 266 281 279 278 282 287 282 281 283 283 283 285 286 287 291 293 287 287 286 282 282 287 286 290 292 290 288 284 281 282 284 286 284 283 285 286 287 284 281 279 276 274 274 267 266 270 269 270 272 273 274 275 277 278 278 276 278 280 282 283 284 284 284 283 281 277 275 271 270 270
148 145 145 137 146 161 171 175 192 201 181 204 236 243 254 263 271 273 274 283 281 274 276 280 285 285 286 285 283 284 290 298 295 296 297 297 287 281 284 286 287 285 283 281 279 281 279 275 280 283 283 280 279 279 279 282 281 274 270 266 253 252 253 244 257 261 257 257 258 264 270 273 276 276 277 269 263 258 260 265 262 260 260 265 267
146 154 152 160 159 162 173 168 195 180 182 226 252 257 259 261 268 273 271 274 271 272 274 280 281 284 283 283 282 286 290 293 298 292 283 280 288 289 280 276 270 256 257 261 248 251 265 277 281 290 294 289 289 287 278 291 293 297 298 296 289 278 263 257 251 257 256 249 247 256 251 261 256 258 256 257 259 260 262 262 264 260 259 262 263
145 138 143 139 148 150 158 166 195 174 194 230 261 268 266 260 265 267 264 261 269 276 278 279 280 284 289 289 289 289 291 292 292 298 299 295 281 291 289 287 288 289 289 290 294 295 296 294 293 284 286 295 297 295 303 306 304 303 304 304 305 303 303 301 298 299 301 296 291 283 282 280 280 277 275 272 270 265 263 262 258 270 271 268 265
150 133 140 142 149 141 140 163 196 179 203 237 263 270 274 271 259 260 251 255 266 276 278 282 290 290 291 296 297 297 294 292 292 296 295 300 310 310 304 296 290 291 293 298 301 300 303 306 307 305 303 303 303 305 306 306 305 307 308 310 309 307 306 305 307 309 306 297 296 294 291 284 281 282 278 275 271 269 264 261 259 258 258 266 267